{"data":{"norad_id":67707,"epoch":"2026-05-24T21:17:03.801984Z","epoch_age_seconds":78126,"freshness":"FRESH","line1":"1 67707U 26025Q   26144.88684956  .00011356  00000+0  35355-3 0  9992","line2":"2 67707  97.2847 256.5590 0000805 112.9399 247.1928 15.33446005 17692","mean_motion":15.33446005,"eccentricity":8.05e-5,"inclination_deg":97.2847,"raan_deg":256.559,"arg_perigee_deg":112.9399,"mean_anomaly_deg":247.1928,"bstar":0.00035355,"rev_number":1769,"period_min":93.906143111964,"perigee_km":464.98926829351,"apogee_km":466.09110032018,"semimajor_km":6843.6771843068,"source":"CELESTRAK","updated_at":"2026-05-25T13:38:21.682002Z"}}